Spokane Fairchild, WA
on Friday, January 4, 2013

Friday
Previous Day Next Day
Daily Summary
 ActualAverage (KGEG)Record (KGEG)
Temperature
Mean Temperature °F 28°F  
Max Temperature 25°F 33°F 55°F (1893)
Min Temperature 17°F 23°F -21°F (1899)
Degree Days
Heating Degree Days 44 37  
Month to date heating degree days 150  
Since 1 July heating degree days 2984  
Cooling Degree Days 0 0  
Month to date cooling degree days 0  
Year to date cooling degree days 0  
Moisture
Dew Point 22°F   
Average Humidity 100    
Maximum Humidity 100    
Minimum Humidity 100    
Precipitation
Precipitation 0.00 in 0.06 in 1.44 in (1884)
Month to date precipitation 0.26  
Year to date precipitation 0.26  
Snow
Snow 0.00 in 0.50 in 3.80 in (1976)
Month to date snowfall 1.9  
Since 1 July snowfall 24.0  
Snow Depth 7.00 in   
Wind
Wind Speed 5 mph   
Max Wind Speed 9 mph   
Max Gust Speed mph   
Visibility 10 miles   
Events Snow   

Key: T is trace of precipitation, MM is missing value
Source: NWS Daily Summary
Time(PST)TemperatureDew PointHumidity Pressure Visibility Wind DirectionWind SpeedGust SpeedPrecipitationEvents Conditions
12:27 AM 17.6°F 17.6°F 100% 30.30 in 10.0 miles SSE 5.8 mph - N/A   Overcast
12:41 AM 17.6°F 17.6°F 100% 30.29 in 10.0 miles SSE 6.9 mph - N/A Snow Light Snow
12:55 AM 17.6°F 17.6°F 100% 30.29 in 10.0 miles SSE 5.8 mph - N/A   Overcast
12:56 AM 17.6°F 17.6°F 100% 30.29 in 10.0 miles SSE 5.8 mph - N/A Snow Light Snow
12:58 AM 17.6°F 17.6°F 100% 30.40 in 10.0 miles North - - 0.00 in Snow Light Snow
1:16 AM 17.6°F 17.6°F 100% 30.30 in 10.0 miles SE 2.3 mph - N/A   Overcast
1:58 AM 18.1°F 18.1°F 100% 30.43 in 10.0 miles North - - 0.00 in   Overcast
2:06 AM 17.6°F 17.6°F 100% 30.29 in 10.0 miles North - - N/A Snow Light Snow
2:18 AM 17.6°F 17.6°F 100% 30.29 in 10.0 miles North - - N/A   Overcast
2:22 AM 17.6°F 17.6°F 100% 30.29 in 10.0 miles North - - N/A Snow Light Snow
2:40 AM 19.4°F 19.4°F 100% 30.30 in 10.0 miles North - - N/A   Overcast
2:58 AM 18.9°F 18.9°F 100% 30.42 in 10.0 miles North - - 0.00 in   Overcast
3:58 AM 19.2°F 19.2°F 100% 30.42 in 10.0 miles North - - N/A   Overcast
4:24 AM 19.4°F 19.4°F 100% 30.29 in 10.0 miles North - - N/A Snow Light Snow
4:38 AM 19.4°F 19.4°F 100% 30.29 in 10.0 miles North - - N/A   Overcast
4:53 AM 19.4°F 19.4°F 100% 30.29 in 10.0 miles North - - N/A Snow Light Snow
4:58 AM 19.4°F 19.4°F 100% 30.43 in 10.0 miles North - - 0.00 in Snow Light Snow
5:03 AM 19.4°F 19.4°F 100% 30.30 in 10.0 miles North - - N/A   Overcast
5:45 AM 19.4°F 19.4°F 100% 30.29 in 10.0 miles North - - N/A Snow Light Snow
5:58 AM 19.8°F 19.8°F 100% 30.42 in 10.0 miles Calm Calm - N/A   Overcast
6:08 AM 19.4°F 19.4°F 100% 30.30 in 10.0 miles North - - N/A   Overcast
6:18 AM 19.4°F 19.4°F 100% 30.30 in 10.0 miles Calm Calm - N/A   Overcast
6:33 AM 19.4°F 19.4°F 100% 30.30 in 10.0 miles East 2.3 mph - N/A   Overcast
6:58 AM 20.1°F 20.1°F 100% 30.43 in 10.0 miles North - - 0.00 in   Overcast
7:01 AM 19.4°F 19.4°F 100% 30.29 in 10.0 miles ENE 2.3 mph - N/A Snow Light Snow
7:48 AM 21.2°F 21.2°F 100% 30.30 in 10.0 miles North - - N/A   Overcast
7:58 AM 20.5°F 20.5°F 100% 30.43 in 10.0 miles NNE 2.3 mph - 0.00 in   Overcast
8:58 AM 21.2°F 21.2°F 100% 30.43 in 10.0 miles ENE 2.3 mph - N/A   Overcast
9:58 AM 21.2°F 21.2°F 100% 30.43 in 10.0 miles ENE 2.3 mph - N/A   Overcast
10:58 AM 21.2°F 21.2°F 100% 30.43 in 10.0 miles Calm Calm - N/A   Overcast
11:20 AM 23.0°F 23.0°F 100% 30.33 in - NE 5.8 mph - N/A   Unknown
11:50 AM 23.0°F 23.0°F 100% 30.33 in 10.0 miles NE 2.3 mph - N/A   Overcast
11:58 AM 23.5°F 23.5°F 100% 30.45 in 10.0 miles NE 2.3 mph - N/A   Overcast
12:31 PM 23.0°F 23.0°F 100% 30.32 in 10.0 miles East 1.2 mph - N/A   Overcast
12:53 PM 23.0°F 23.0°F 100% 30.31 in 10.0 miles East 1.2 mph - N/A   Overcast
12:58 PM 23.7°F 23.7°F 100% 30.43 in 10.0 miles ENE 2.3 mph - 0.00 in   Overcast
1:08 PM 24.8°F 24.8°F 100% 30.31 in 10.0 miles Calm Calm - N/A   Freezing Rain
1:17 PM 24.8°F 24.8°F 100% 30.31 in 10.0 miles ENE 1.2 mph - N/A   Overcast
1:58 PM 24.8°F 24.8°F 100% 30.43 in 10.0 miles NE 1.2 mph - 0.00 in   Overcast
2:58 PM 25.3°F 25.3°F 100% 30.43 in 10.0 miles NNE 4.6 mph - N/A   Overcast
3:43 PM 24.8°F 24.8°F 100% 30.32 in 10.0 miles NNE 4.6 mph - N/A   Overcast
3:58 PM 25.2°F 25.2°F 100% 30.43 in 10.0 miles NE 4.6 mph - N/A   Overcast
4:23 PM 24.8°F 24.8°F 100% 30.32 in 10.0 miles NNE 4.6 mph - N/A   Overcast
4:33 PM 24.8°F 24.8°F 100% 30.32 in 10.0 miles NE 4.6 mph - N/A   Overcast
4:58 PM 24.8°F 24.8°F 100% 30.43 in 10.0 miles NNE 5.8 mph - N/A   Overcast
5:38 PM 24.8°F 24.8°F 100% 30.31 in 10.0 miles NE 4.6 mph - N/A   Overcast
5:48 PM 24.8°F 24.8°F 100% 30.32 in 10.0 miles NNE 4.6 mph - N/A   Overcast
5:58 PM 24.6°F 24.6°F 100% 30.42 in 10.0 miles NNE 4.6 mph - N/A   Overcast
6:58 PM 24.4°F 24.4°F 100% 30.42 in 10.0 miles NNE 5.8 mph - N/A   Overcast
7:08 PM 24.8°F 24.8°F 100% 30.31 in 10.0 miles NNE 5.8 mph - N/A   Overcast
7:38 PM 24.8°F 24.8°F 100% 30.31 in 10.0 miles North 4.6 mph - N/A   Overcast
7:58 PM 24.4°F 24.4°F 100% 30.42 in 10.0 miles NNE 5.8 mph - N/A   Overcast
8:26 PM 24.8°F 24.8°F 100% 30.31 in 10.0 miles NNE 9.2 mph - N/A   Overcast
8:41 PM 24.8°F 24.8°F 100% 30.32 in 10.0 miles North 9.2 mph - N/A   Overcast
8:46 PM 24.8°F 24.8°F 100% 30.32 in 10.0 miles North 9.2 mph - N/A   Overcast
8:51 PM 24.8°F 24.8°F 100% 30.32 in 10.0 miles North 9.2 mph - N/A   Overcast
8:58 PM 24.8°F 24.8°F 100% 30.43 in 10.0 miles North 8.1 mph - N/A   Overcast
9:16 PM 24.8°F 24.8°F 100% 30.32 in 10.0 miles North 8.1 mph - N/A   Overcast
9:21 PM 24.8°F 24.8°F 100% 30.32 in 10.0 miles NNE 8.1 mph - N/A   Overcast
9:26 PM 24.8°F 24.8°F 100% 30.32 in 10.0 miles NNE 8.1 mph - N/A   Overcast
9:36 PM 24.8°F 24.8°F 100% 30.32 in 10.0 miles NNE 8.1 mph - N/A   Overcast
9:51 PM 24.8°F 24.8°F 100% 30.32 in 10.0 miles NNE 8.1 mph - N/A   Overcast
9:56 PM 24.8°F 24.8°F 100% 30.32 in 10.0 miles NNE 8.1 mph - N/A   Overcast
9:58 PM 25.3°F 25.3°F 100% 30.43 in 10.0 miles NNE 6.9 mph - N/A   Overcast
10:28 PM 24.8°F 24.8°F 100% 30.33 in 10.0 miles NNE 5.8 mph - N/A   Overcast
10:58 PM 25.5°F 25.5°F 100% 30.44 in 10.0 miles NNE 8.1 mph - N/A   Overcast
11:03 PM 24.8°F 24.8°F 100% 30.32 in 10.0 miles NE 6.9 mph - N/A   Overcast
11:58 PM 25.9°F 25.9°F 100% 30.43 in 10.0 miles NNE 5.8 mph - N/A   Overcast
Moon Phase
Jan. 04 Jan. 04 Jan. 11 Jan. 18 Jan. 26
Sunrise:07:38 AM (PST) Moon Rise:No Moon Rise/
Sunset:04:13 PM (PST) Moon Set:10:50 AM (PST)1/4

Copyright © 2014 The Weather Underground, Inc.